weather.gov     
National Weather Service

Terminal Aerodrome Forecast
NWS Homepage
This page is being discontinued on March 12, 2014.
The same data is available at this site. Please update your bookmarks.
Thank you, and we apologize for the inconvenience.
Please send an email to SR-SRH.Webmaster@noaa.gov with any concerns.


Current Version
Previous Version:    01  02  03  04  05  06  07  08  09  10  11  12  13  14  
[Printable]
993
FTUS41 KGYX 241122
TAFRKD
TAF
KRKD 241122Z 2412/2512 02011KT P6SM -SHRA OVC012
     FM241300 35010KT P6SM -SHRA BKN015 OVC035
     FM241800 34009G18KT P6SM BKN025 OVC040
     FM242200 32007KT P6SM BKN050
      AMD LTD TO CLD VIS AND WIND=


993
FTUS41 KGYX 241122
TAFRKD
TAF
KRKD 241122Z 2412/2512 02011KT P6SM -SHRA OVC012
     FM241300 35010KT P6SM -SHRA BKN015 OVC035
     FM241800 34009G18KT P6SM BKN025 OVC040
     FM242200 32007KT P6SM BKN050
      AMD LTD TO CLD VIS AND WIND=




U.S. Dept. of Commerce
NOAA National Weather Service
1325 East West Highway
Silver Spring, MD 20910
E-mail: w-nws.webmaster@noaa.gov
Page last modified: May 16, 2007
NATIONAL WEATHER SERVICE: for Safety, for Work, for Fun - FOR LIFE